Wind_Speed
18 18 18 17 16 15 14 13 13 12 12 13 12 11 10 10 10 11 12 13 14 14 15 15 14 14 15 16 16 14 15 14 12 11 12 12 13 11 10 10 9 9 8 7 7 6 6 7 6 5 5 5 4 2 1 3 3 4 4 4 5 4 3 3 5 6 5 4 4 4 5 5 6 3 2 3 6 12 14 14 12 9 8 9 6 4 5
17 17 17 16 15 15 14 13 13 12 11 11 12 12 11 10 11 13 14 14 15 15 15 15 14 15 16 16 15 14 14 14 12 12 12 12 12 13 13 12 10 9 8 9 9 8 7 7 7 5 5 5 3 2 1 1 1 2 3 5 5 5 3 4 4 3 6 7 6 4 3 3 5 5 5 5 4 3 9 15 17 11 8 9 6 4 4
16 17 17 16 15 15 14 13 12 12 11 10 11 12 11 11 11 14 16 16 17 17 16 15 14 15 16 16 15 14 14 14 13 12 12 12 13 14 13 12 10 9 9 9 10 10 8 8 7 6 6 6 5 4 3 2 2 2 3 5 6 5 4 3 5 5 5 6 8 9 9 6 3 3 4 6 7 6 4 8 13 9 7 7 6 5 6
16 16 17 16 15 14 14 13 12 11 11 10 10 11 11 11 11 14 17 18 19 19 19 18 16 16 16 16 16 16 15 13 13 13 12 12 14 15 14 13 12 11 11 11 11 11 10 8 7 6 7 8 7 6 5 6 6 6 5 4 5 6 6 3 5 9 9 9 11 12 12 9 4 2 2 3 7 10 8 2 7 8 7 6 7 7 8
16 16 16 16 15 14 14 13 12 11 10 9 9 10 11 11 11 12 15 17 19 21 22 21 19 19 18 17 17 17 17 15 12 13 13 12 13 15 15 15 14 13 13 13 13 12 11 10 8 6 7 9 8 8 8 8 9 9 7 6 6 6 5 2 3 7 8 8 10 12 11 9 7 4 1 1 4 9 11 7 3 6 7 6 6 6 6
16 16 16 16 15 15 14 13 12 11 10 9 8 9 11 11 11 12 14 16 17 20 22 23 22 21 20 18 17 17 18 17 14 12 12 12 12 14 16 16 15 14 13 13 13 13 12 12 11 9 9 10 10 10 10 10 10 10 8 7 7 6 5 2 2 3 4 4 6 8 9 8 8 7 5 4 4 7 12 12 10 8 7 8 8 7 4
17 16 15 16 15 15 14 14 13 12 10 9 8 8 10 11 12 12 14 16 18 18 19 21 22 22 21 20 19 18 18 18 17 14 12 11 11 13 15 15 15 15 14 14 14 14 12 12 12 10 10 11 11 11 11 11 11 10 9 8 7 7 6 4 3 4 4 5 6 7 7 7 7 8 8 7 6 7 11 13 14 13 10 9 9 7 4
19 17 16 16 15 15 15 14 14 13 11 10 9 9 9 11 12 13 14 16 18 19 18 19 19 20 21 19 18 18 18 18 19 17 14 11 9 12 15 14 13 14 14 14 14 13 11 10 9 9 9 11 11 10 10 10 10 9 9 9 10 9 8 6 5 5 4 5 7 8 9 9 9 10 10 11 10 10 12 14 15 15 14 11 7 6 4
20 19 18 17 16 15 15 15 14 14 12 11 10 10 10 10 12 13 14 15 17 19 20 20 19 19 19 19 18 18 17 18 18 17 15 13 10 10 14 15 14 14 14 15 14 12 11 9 8 8 9 11 10 9 8 8 8 7 7 9 10 9 9 8 7 6 5 5 6 7 8 10 12 13 14 14 14 14 14 15 14 14 15 13 8 6 3
21 21 20 19 17 15 15 15 15 14 13 12 12 11 10 10 11 12 13 14 15 17 19 21 21 20 20 19 19 18 18 18 19 17 15 14 13 12 13 15 15 15 15 14 11 9 9 9 8 9 9 11 11 8 6 5 5 6 6 8 8 7 8 9 9 6 6 6 5 5 6 7 9 11 12 15 15 15 16 17 16 14 14 13 9 5 3
22 21 21 20 19 17 15 15 15 15 14 13 12 12 11 11 11 12 12 13 13 15 16 18 20 22 22 21 20 19 19 18 19 19 16 15 14 14 14 15 16 16 14 11 9 10 10 9 9 9 9 11 11 8 6 5 5 6 6 6 7 6 5 7 8 5 5 6 6 6 5 5 6 7 8 11 14 14 14 16 17 15 13 13 8 4 2
21 21 21 20 20 18 16 15 16 16 15 14 13 13 12 12 11 11 12 12 12 13 14 15 17 19 21 22 22 22 21 20 20 20 19 17 15 13 13 15 16 15 13 11 11 12 11 10 10 9 9 11 10 9 8 7 6 7 7 7 7 7 6 7 8 7 6 6 6 5 4 5 6 7 6 6 9 11 12 14 15 13 11 10 6 3 3
21 20 21 21 20 19 17 16 16 16 16 15 14 13 13 13 12 11 12 11 11 12 13 14 15 16 17 20 22 23 23 23 22 21 20 19 18 14 13 15 17 16 13 13 14 13 12 11 10 9 10 11 12 12 12 11 9 9 9 9 8 9 8 9 9 8 8 6 5 5 5 6 8 9 8 7 7 9 10 11 10 9 8 7 5 4 5
21 20 20 21 20 19 18 17 16 17 17 16 14 13 14 13 12 12 12 11 11 11 12 12 13 14 15 17 19 21 22 24 25 24 22 20 19 16 13 14 17 18 16 14 15 14 12 11 10 9 11 12 13 13 14 14 14 12 12 12 11 10 9 10 10 9 8 7 7 9 10 10 9 8 8 7 7 9 10 10 10 10 8 6 5 5 6
21 20 20 21 20 19 18 17 17 17 17 16 15 14 14 14 13 13 12 12 11 11 11 11 12 12 13 14 16 18 19 21 24 26 25 23 21 19 15 14 16 19 18 16 16 15 13 12 11 11 11 12 12 11 12 13 13 13 13 12 11 10 10 10 10 9 9 9 8 8 8 7 6 7 9 7 6 8 10 12 13 12 10 6 4 5 6
21 20 20 20 20 19 17 17 16 16 17 16 15 13 14 14 14 14 13 12 12 11 10 11 11 11 11 12 14 15 17 19 21 24 25 25 24 23 19 15 16 21 21 18 17 16 15 14 12 11 11 12 11 8 7 7 8 10 12 13 13 12 12 12 12 11 11 10 8 6 6 6 7 10 11 9 6 6 8 10 12 13 12 8 5 5 6
22 21 20 20 20 19 17 16 16 16 17 16 14 13 13 14 14 14 13 13 12 11 11 12 12 11 10 11 13 14 14 16 18 20 22 24 24 25 23 18 18 22 22 19 19 19 17 16 14 12 12 12 10 8 7 6 6 7 9 11 13 14 14 14 15 15 14 13 11 11 11 11 11 12 12 10 7 6 6 6 6 10 14 12 8 7 8
22 21 20 20 20 19 17 16 16 17 17 16 14 13 13 13 14 14 14 14 13 12 12 13 13 12 12 11 12 13 14 15 17 18 19 21 23 25 24 21 20 24 24 23 22 21 19 17 15 14 12 12 11 9 8 8 7 7 8 9 10 13 14 16 17 17 16 15 14 14 13 12 12 12 11 10 8 7 7 6 5 6 10 12 12 11 10
21 20 20 20 19 18 17 16 16 17 16 16 14 13 12 13 13 13 13 14 14 13 12 14 15 14 13 12 13 14 14 15 17 18 18 19 22 25 25 22 22 25 26 25 24 21 19 18 16 14 13 13 12 11 10 10 8 7 7 8 9 11 12 14 16 17 17 16 13 12 13 13 12 12 12 11 10 9 9 10 9 8 8 10 12 13 13
21 20 19 19 19 18 17 16 17 17 16 15 14 12 12 12 12 13 13 14 15 13 12 15 16 14 14 14 13 15 17 17 17 18 18 18 20 24 25 24 24 26 27 27 25 21 19 18 16 15 14 13 13 12 12 12 11 9 8 8 8 9 9 9 11 12 12 13 11 8 9 11 10 11 12 12 11 12 12 12 12 12 11 10 11 13 14
20 19 19 19 18 17 17 16 17 16 15 14 13 12 12 12 12 12 13 14 15 13 12 15 16 14 14 14 15 17 18 18 17 19 19 18 20 23 24 25 28 28 26 26 25 21 19 18 17 15 14 12 12 12 12 12 12 12 11 9 8 9 9 9 10 9 9 11 11 9 10 11 10 10 11 11 11 12 13 13 14 14 13 12 11 12 14
19 18 18 18 17 17 17 16 16 15 14 13 13 12 12 11 11 12 13 14 15 13 12 14 15 14 14 15 17 19 19 19 19 20 19 19 20 23 23 24 28 29 24 23 25 23 21 20 18 16 14 12 12 13 13 12 12 11 11 10 8 8 8 9 9 10 10 11 12 12 12 12 11 11 12 12 12 12 12 14 15 16 16 13 11 11 14
18 18 17 17 17 16 17 16 15 14 13 12 12 12 12 12 12 12 13 13 14 13 12 13 14 14 15 17 20 20 19 20 20 20 20 19 20 23 23 22 26 29 25 23 25 23 21 19 17 15 14 12 11 13 15 15 14 12 11 11 9 9 9 8 8 9 11 12 13 14 13 13 13 12 13 13 13 13 13 14 15 17 18 16 13 13 16
17 17 17 16 16 16 16 15 14 13 12 11 11 12 12 12 12 11 12 12 12 11 10 10 11 13 15 17 19 20 20 20 21 21 22 22 20 21 22 21 22 26 26 24 25 22 17 16 17 16 14 12 12 15 16 16 15 14 12 11 11 10 10 10 10 10 10 10 11 11 11 11 11 12 13 15 15 15 14 14 15 17 20 20 17 15 15
17 16 16 16 16 16 15 15 13 12 12 11 11 11 11 11 11 10 10 11 11 12 11 9 10 13 14 14 16 20 21 21 23 24 23 22 20 19 20 20 21 23 24 24 24 23 19 17 16 16 14 13 14 16 16 15 13 13 13 12 11 10 10 9 9 10 10 11 11 12 11 10 9 10 12 14 16 16 15 15 16 18 21 23 21 18 17
16 16 16 16 16 16 15 14 13 13 12 11 11 11 11 11 10 10 10 11 12 14 12 8 8 10 11 12 15 19 20 21 24 24 23 22 20 19 19 19 20 22 22 22 23 23 21 18 17 16 15 14 14 14 13 13 12 11 12 11 10 9 9 8 7 8 9 10 10 10 11 10 9 10 12 14 16 17 16 16 17 18 21 24 23 21 21
16 16 16 16 16 15 14 14 13 13 12 12 11 11 11 12 12 11 12 13 13 13 10 7 7 8 8 11 15 17 19 20 23 24 23 21 20 20 19 19 19 20 21 22 22 21 20 19 18 17 16 14 13 12 11 11 11 11 11 10 9 8 8 7 6 6 7 7 7 7 7 7 7 9 11 14 16 17 16 17 17 16 18 21 23 23 23
16 16 15 15 15 15 14 14 14 13 12 12 12 12 13 13 13 13 13 15 15 15 14 12 10 9 8 10 13 15 18 21 22 23 23 22 21 20 19 19 19 19 19 20 20 18 17 17 18 17 15 14 13 11 10 10 11 12 12 10 9 7 5 4 4 4 5 6 6 6 5 4 6 8 10 12 14 15 16 16 16 15 14 16 22 25 25
15 15 15 15 15 15 15 14 14 13 13 12 12 13 13 13 14 14 15 15 16 17 17 14 11 8 8 10 12 15 18 21 22 22 23 23 22 21 19 18 19 19 20 21 21 18 15 16 17 16 16 15 12 11 10 11 12 13 11 9 8 6 5 5 5 4 3 4 4 6 5 3 4 5 6 9 7 8 13 15 15 15 11 12 19 22 25
15 15 15 15 15 14 15 15 14 14 13 13 13 13 13 13 14 15 15 16 15 16 16 13 10 8 9 10 13 16 18 20 21 21 22 23 23 21 20 19 18 19 21 23 24 21 18 17 17 17 16 15 14 15 15 14 14 14 11 9 8 8 8 8 6 2 2 2 3 7 6 3 2 4 2 9 8 6 8 13 16 17 12 12 14 16 18
16 16 15 15 14 15 15 15 14 14 13 13 13 13 13 14 15 15 15 15 15 14 13 11 9 8 9 12 14 15 17 19 20 19 20 22 23 23 22 21 19 19 19 20 21 22 21 19 19 17 17 18 19 18 16 15 16 16 12 10 9 9 9 9 7 4 1 3 1 6 6 5 2 7 7 7 10 12 12 14 18 20 17 15 15 14 14
16 16 15 15 15 15 15 15 14 14 13 13 13 13 14 14 14 15 14 14 14 13 12 10 9 7 9 13 15 16 16 18 19 18 18 20 21 23 24 23 20 19 17 16 18 20 22 22 21 19 19 20 19 16 14 16 18 17 13 11 11 10 11 11 9 6 3 4 2 3 5 6 7 6 9 11 13 16 16 15 15 16 17 16 14 13 15
16 16 15 15 15 15 15 15 14 14 13 14 14 13 13 13 13 13 13 13 13 11 10 9 9 7 8 11 14 16 16 16 17 17 17 18 20 22 24 23 21 20 20 20 19 18 19 22 22 20 20 19 16 13 15 17 17 15 13 12 12 11 13 14 11 7 7 6 4 4 6 7 9 9 8 9 10 12 12 10 10 12 14 15 13 13 14
17 16 15 15 15 15 14 14 14 13 13 14 13 12 11 11 12 12 11 12 11 9 9 9 9 8 9 10 12 15 16 15 16 17 17 16 18 21 23 24 23 22 23 24 22 18 16 18 19 19 21 21 17 13 14 14 14 14 13 13 13 13 15 16 13 10 10 9 5 5 7 7 7 7 8 8 8 9 10 9 9 10 12 12 11 11 12
17 16 15 15 14 14 14 14 13 13 13 12 11 10 10 11 11 11 10 9 9 8 8 9 8 9 10 10 11 13 15 16 15 16 16 15 16 19 22 24 25 24 24 23 23 21 18 18 20 21 22 23 20 16 12 10 11 13 13 13 14 14 16 18 16 13 13 11 7 6 7 7 6 6 6 6 7 8 9 9 9 10 10 11 11 11 10
17 16 15 14 14 14 14 13 13 12 11 10 9 9 10 10 9 9 8 8 8 8 8 8 9 10 11 12 11 12 14 15 15 15 16 15 15 17 21 23 25 26 26 25 24 23 21 22 22 21 23 25 24 19 13 8 9 12 13 14 14 14 16 18 17 15 14 13 10 8 7 8 7 6 5 5 5 6 7 7 7 8 9 9 9 9 8
17 16 15 14 14 13 13 12 12 11 10 9 9 9 9 8 8 8 8 9 10 10 10 10 10 10 13 14 12 11 12 14 15 15 16 16 16 16 18 21 22 24 25 26 25 23 23 23 23 23 24 25 26 22 16 11 11 13 14 14 14 15 17 19 18 17 16 14 12 10 9 9 8 7 6 4 4 4 5 6 6 7 7 7 6 7 7
16 16 15 14 13 13 12 12 11 10 9 9 9 9 9 8 9 10 9 9 10 10 11 10 9 10 13 15 13 11 11 12 14 15 16 17 17 15 15 17 20 21 22 24 24 23 23 23 24 26 25 23 22 23 20 16 13 14 14 14 14 15 17 19 20 19 17 14 11 10 10 9 8 8 8 6 5 5 6 7 6 6 6 6 6 6 6
16 16 15 14 14 13 12 11 10 9 8 9 8 8 8 9 9 10 10 10 9 10 11 10 8 10 13 14 13 12 11 11 13 15 16 17 19 18 16 17 18 18 18 21 22 23 24 24 24 26 27 24 23 23 21 17 16 16 16 15 15 15 16 18 19 18 14 9 6 6 7 7 6 7 8 8 8 7 7 7 7 6 6 6 6 5 5
16 15 15 15 14 13 11 9 9 9 8 8 8 8 8 9 9 9 10 10 9 9 10 9 9 11 12 13 14 14 13 12 12 13 13 15 17 18 16 16 16 16 16 18 19 20 23 24 25 28 29 27 24 22 21 19 18 18 16 15 16 16 16 18 19 17 13 9 7 7 8 9 9 8 8 8 8 7 7 7 8 7 7 7 7 6 6
15 15 15 15 14 12 10 9 9 9 8 8 8 9 9 10 10 10 10 9 8 8 8 8 10 11 11 12 14 14 14 13 12 12 11 12 13 15 15 15 15 16 17 18 18 20 22 24 27 30 27 19 15 19 20 20 20 19 17 16 17 17 18 19 19 18 16 14 12 11 11 11 11 10 10 10 9 9 9 8 8 8 8 8 7 7 7
15 15 15 14 13 11 10 10 9 9 9 9 9 10 11 11 10 10 9 8 7 6 5 7 10 11 12 13 14 14 14 13 12 12 11 11 11 12 13 13 13 14 16 17 18 20 22 24 27 29 23 14 13 17 19 20 21 20 17 16 18 20 21 21 20 19 18 17 14 14 14 14 13 12 12 13 12 12 11 10 10 9 9 9 9 9 9
15 15 14 12 12 11 11 11 11 10 10 10 10 10 11 11 10 9 8 8 8 7 6 7 9 11 11 13 14 14 14 14 13 12 12 11 11 11 12 13 12 13 13 15 17 19 21 24 26 24 18 13 14 17 19 21 22 21 18 17 19 22 23 23 21 20 19 17 15 15 17 17 15 14 14 14 13 12 12 11 11 11 11 11 11 11 10
14 14 13 12 13 13 12 12 12 12 12 12 11 10 10 9 9 9 8 7 8 8 8 8 8 9 10 12 13 13 14 14 14 14 13 12 12 12 12 12 12 13 14 15 16 18 21 24 23 19 15 14 15 18 21 23 22 20 18 17 21 24 25 24 23 21 19 17 16 17 18 19 18 17 16 15 13 12 11 11 12 12 12 12 12 11 11
14 14 13 13 14 15 13 12 13 14 13 12 10 9 8 7 7 8 8 8 9 11 11 9 9 9 10 11 12 14 14 14 14 14 13 12 12 12 12 11 11 12 13 14 16 20 22 22 19 15 14 16 18 21 24 24 23 20 18 19 23 26 26 24 22 21 19 17 16 17 18 18 18 17 16 15 14 13 12 12 12 12 12 12 12 11 11
14 14 13 13 15 15 15 14 13 12 11 10 9 8 8 8 9 10 10 10 10 12 12 11 10 11 10 10 11 13 13 13 13 13 11 9 9 11 12 13 12 11 11 14 18 20 18 14 10 9 11 14 18 22 25 25 23 21 19 21 23 24 24 22 21 20 18 17 16 16 17 17 17 16 15 15 14 14 13 13 13 12 12 12 12 11 11
14 14 13 13 14 15 15 14 11 9 8 9 9 10 12 12 12 12 12 11 11 12 13 11 10 10 9 9 11 12 12 13 13 12 10 9 8 8 10 12 12 12 13 16 16 14 8 4 4 6 9 13 18 21 23 23 23 21 21 22 23 22 21 21 20 18 17 16 16 16 16 17 16 16 16 15 15 15 14 14 13 13 13 12 12 11 11
14 14 14 14 14 13 13 12 11 10 9 9 9 11 13 13 12 13 13 13 12 12 11 10 10 10 9 9 10 11 12 12 12 11 10 9 8 7 6 8 11 13 13 11 8 5 3 2 4 6 9 13 18 21 22 22 23 22 22 23 23 21 20 20 19 17 16 15 15 15 16 17 17 17 17 16 16 16 15 14 14 13 13 13 12 11 10
15 15 15 14 13 11 10 11 12 12 11 10 10 11 12 13 14 15 15 15 13 13 12 12 11 11 10 10 11 11 12 12 12 11 10 10 8 6 4 5 6 6 5 1 2 2 2 4 7 9 11 13 16 19 21 23 23 23 23 23 23 22 21 19 17 16 15 15 15 15 16 17 17 17 17 17 16 16 15 15 14 14 13 13 12 11 10
16 15 15 13 12 9 8 9 10 11 11 12 12 11 12 13 15 16 16 15 13 11 12 13 13 11 11 12 12 12 12 12 11 11 11 10 9 8 7 5 2 1 3 3 2 0 2 5 8 10 11 13 15 17 20 22 23 23 22 22 23 23 22 21 19 17 16 17 17 17 16 16 16 16 16 16 16 16 15 15 14 14 13 13 12 11 11
16 15 13 12 12 11 10 9 9 9 10 12 13 13 12 13 15 16 16 16 13 10 9 10 11 11 12 14 13 11 10 12 12 12 11 10 10 10 7 3 2 2 3 2 0 2 3 5 8 9 10 12 15 16 17 20 21 22 22 22 23 23 24 23 21 19 18 18 18 18 17 17 16 16 17 17 16 16 15 15 14 13 12 11 11 11 12
14 12 11 11 12 12 11 10 10 9 9 11 12 12 12 12 13 14 14 14 14 11 9 9 10 11 13 14 13 11 9 9 11 12 12 10 9 8 5 4 4 2 1 1 2 4 4 5 7 9 10 11 13 15 16 18 20 21 22 22 23 23 24 23 22 21 20 19 18 18 18 17 17 17 17 17 16 16 15 14 13 12 11 11 12 12 13
Wind_Direction
322 322 321 322 322 320 316 310 303 294 282 265 255 252 252 252 244 239 236 230 226 224 222 224 221 211 203 200 204 210 212 211 210 212 221 230 236 240 236 231 230 228 233 243 242 232 217 211 223 225 209 214 228 229 286 325 337 349 342 333 332 312 272 244 234 215 181 159 154 115 96 126 133 129 193 224 244 236 229 231 241 255 250 243 254 262 291
322 322 322 322 323 322 319 315 308 300 288 267 253 247 247 245 235 230 231 229 227 225 224 225 220 211 207 205 208 214 214 215 215 213 219 226 231 235 234 233 237 232 231 244 249 243 227 215 223 233 220 211 223 241 273 343 351 356 356 349 339 322 277 226 231 214 174 167 171 173 164 134 111 86 69 56 31 275 247 238 236 249 256 242 249 268 300
320 321 322 322 323 323 321 318 314 306 296 275 254 245 243 243 234 226 226 227 227 228 229 229 223 218 215 213 214 218 218 220 222 216 217 224 226 230 233 232 234 235 240 249 247 244 242 225 216 226 231 226 223 229 236 249 274 294 312 330 334 331 327 269 236 233 211 202 201 195 192 189 153 89 62 43 32 19 325 240 226 235 252 241 240 266 302
317 318 320 321 322 322 321 320 318 312 303 286 264 249 241 240 236 226 223 226 228 230 232 233 231 227 225 223 224 224 221 224 227 223 224 227 227 229 233 232 231 236 245 249 241 238 240 230 218 226 240 241 235 235 249 260 272 285 291 311 323 316 321 308 245 248 259 247 220 202 197 197 185 124 71 33 27 18 4 288 222 235 258 262 257 267 292
313 315 316 318 320 321 321 319 319 316 310 297 277 259 245 238 237 229 220 221 227 231 234 236 236 234 233 233 233 230 228 228 230 229 232 234 230 230 231 230 231 237 243 244 240 237 238 235 235 245 251 250 247 251 262 267 272 283 285 288 300 299 303 318 231 245 256 238 207 197 197 203 209 215 254 324 8 9 3 360 316 268 259 264 278 284 298
309 310 313 315 317 319 319 318 317 314 311 306 289 269 254 242 239 233 223 220 224 229 232 235 238 239 239 240 239 235 232 232 231 229 232 236 235 231 227 226 231 240 245 247 244 238 235 235 242 254 259 254 253 257 265 272 275 277 274 268 273 276 274 257 201 220 234 219 206 197 191 198 216 227 245 275 312 346 348 350 352 329 279 262 276 284 287
304 304 306 311 314 316 316 317 316 313 308 305 295 277 261 249 242 237 229 226 226 229 231 234 237 239 241 243 242 238 235 234 234 231 230 235 234 230 228 225 229 237 244 247 246 240 236 240 247 260 267 263 261 261 262 270 277 275 261 244 240 246 249 239 212 207 219 235 247 244 230 229 234 233 236 250 272 309 325 333 344 340 313 287 282 284 277
300 298 299 303 309 312 313 313 314 311 307 303 296 283 269 257 248 242 237 232 230 231 232 233 234 236 239 241 242 240 239 238 238 237 236 238 234 228 228 228 228 234 240 246 248 248 251 256 261 274 282 276 269 264 262 272 283 281 259 234 229 240 246 236 222 218 220 232 252 259 259 263 263 257 252 251 255 275 299 315 328 334 329 315 292 286 292
296 295 293 295 300 306 308 309 309 308 306 302 296 286 274 264 254 248 243 239 235 234 234 234 233 234 235 237 238 239 241 241 241 240 239 240 238 229 225 226 227 231 239 246 250 254 258 260 265 278 286 283 275 269 270 279 279 267 245 226 227 241 244 228 215 221 234 242 256 264 268 274 272 267 264 259 253 258 274 292 309 324 330 324 301 279 290
294 292 291 290 293 297 302 304 304 304 303 300 294 287 278 269 263 255 249 246 243 240 239 238 237 236 237 237 237 238 240 242 243 242 237 235 237 237 230 225 224 226 233 242 247 248 249 253 259 269 279 282 277 271 273 273 250 231 223 216 220 236 241 222 209 219 248 246 250 267 275 276 273 268 263 256 251 251 258 271 286 306 322 323 311 277 253
290 290 289 288 288 289 294 299 300 300 299 296 291 286 280 273 269 264 257 253 250 246 244 243 241 241 240 239 239 237 238 241 243 242 237 229 231 238 235 227 224 223 226 237 245 236 232 241 252 263 275 279 272 260 254 243 221 215 218 215 217 223 224 216 209 225 259 244 239 263 271 262 271 284 275 253 243 242 245 255 269 287 307 317 313 274 245
287 288 287 286 285 284 286 291 295 295 295 292 287 282 279 275 271 269 264 260 255 251 248 247 245 244 244 242 241 238 236 236 239 241 239 230 226 232 235 230 225 222 222 232 238 228 224 236 247 256 269 275 266 249 241 240 234 230 227 226 230 231 227 219 214 226 255 254 244 256 256 245 269 300 309 275 251 245 242 247 258 271 292 309 310 255 231
284 285 285 284 283 282 283 285 288 290 289 289 285 279 275 273 270 270 268 265 262 258 254 251 248 247 247 245 244 241 238 235 235 238 240 234 226 226 232 232 225 220 221 230 233 227 227 236 242 248 260 266 260 248 242 244 248 247 241 238 238 238 234 226 220 229 248 247 231 244 271 284 292 301 302 287 266 255 248 242 240 246 265 289 293 243 230
282 283 283 282 282 282 281 281 283 283 284 285 284 277 271 270 268 268 268 267 266 264 261 259 255 251 249 247 245 243 240 237 235 235 238 236 229 223 228 232 225 217 216 224 229 228 226 227 231 241 254 258 255 253 250 249 251 251 248 244 239 235 232 227 224 232 244 246 249 268 286 295 301 309 309 288 261 250 248 242 231 226 234 254 263 241 234
281 280 280 280 281 281 280 278 278 278 279 282 282 276 268 266 265 265 266 268 267 268 268 266 264 261 256 253 249 245 242 239 236 234 234 235 232 226 228 233 224 213 211 218 228 227 220 217 221 229 241 250 253 256 255 249 245 243 240 234 228 228 231 233 233 236 242 250 262 276 285 292 305 324 329 313 271 248 247 250 245 230 215 216 235 235 225
278 278 278 278 279 279 278 276 274 274 276 279 280 274 267 263 263 263 265 266 267 267 269 269 269 268 264 261 257 250 244 240 238 235 232 232 232 229 229 232 222 210 208 216 225 224 217 214 219 226 238 251 256 255 246 237 233 234 230 224 226 235 243 244 242 242 242 241 245 254 262 276 299 314 320 318 298 265 251 255 255 237 218 208 209 215 212
276 275 275 276 277 277 275 273 271 271 274 276 277 274 267 262 261 262 263 265 266 265 267 270 271 271 266 260 257 254 247 241 238 234 229 226 228 228 229 231 221 209 209 216 220 220 217 215 220 232 244 253 253 245 234 223 218 219 220 222 229 237 240 236 234 242 249 244 241 250 260 272 286 296 304 306 298 274 250 252 257 233 223 222 219 212 209
273 272 272 272 273 273 271 270 268 269 271 274 275 273 268 262 261 261 262 264 265 265 266 268 270 270 266 257 251 251 248 241 237 233 226 220 220 221 224 228 220 209 210 215 215 216 218 218 221 233 246 248 244 243 239 230 223 223 224 226 230 232 232 231 232 243 251 247 244 252 261 269 275 280 287 289 281 259 238 237 247 235 228 229 227 220 214
271 269 268 269 269 269 268 266 266 267 271 273 273 271 267 263 261 261 262 264 264 263 265 267 268 268 266 260 250 246 244 240 237 232 223 215 212 212 216 221 216 206 205 209 212 215 218 218 220 231 243 244 237 236 239 235 231 232 234 236 236 232 232 235 237 243 248 246 245 253 260 263 267 270 274 273 258 242 240 242 246 257 259 247 238 230 221
269 267 266 265 266 265 264 263 264 266 270 272 271 270 267 264 262 262 263 264 265 264 263 266 268 267 263 257 248 242 239 236 235 230 221 213 209 206 206 206 204 201 201 203 208 212 214 218 224 230 239 244 239 236 242 242 238 239 243 246 246 236 230 237 241 242 242 236 232 243 260 265 269 270 269 266 253 248 254 252 245 252 267 266 253 241 227
269 265 263 262 262 262 261 261 263 265 268 268 269 269 268 264 262 262 263 266 270 269 263 263 265 262 257 250 243 240 236 231 231 230 221 213 207 203 198 194 194 197 199 202 208 213 215 220 228 231 233 238 236 234 239 241 240 242 245 249 251 241 233 240 246 241 231 224 225 242 265 271 273 272 270 272 270 264 260 253 245 248 259 265 263 251 233
269 264 260 259 258 257 258 258 260 263 265 265 266 268 268 266 263 265 267 270 273 273 266 263 263 259 252 245 240 239 235 228 227 227 221 215 210 203 196 191 192 194 196 201 209 216 220 221 226 231 234 237 239 240 240 238 238 241 243 243 246 247 245 249 253 251 247 245 248 259 270 273 273 271 268 267 269 265 256 250 246 247 251 254 256 253 241
268 262 258 257 255 254 255 256 257 260 261 262 265 268 270 269 268 269 271 273 275 275 270 267 267 259 248 241 238 237 233 226 224 224 220 217 212 205 199 194 193 194 196 199 205 214 222 225 228 234 236 238 245 248 244 241 241 243 246 247 246 248 253 260 266 264 260 259 261 264 268 272 271 267 262 260 260 259 256 251 245 244 248 248 239 235 235
265 260 256 254 252 252 253 254 253 256 256 257 265 269 270 272 271 271 275 278 281 282 277 271 268 259 249 243 238 236 232 225 220 220 218 214 211 208 207 202 198 197 198 200 203 208 216 222 226 231 235 238 246 247 243 243 246 247 250 253 250 249 253 259 267 272 268 266 269 269 268 269 267 263 259 255 252 251 253 253 249 245 247 245 235 225 223
261 257 253 251 250 250 251 251 249 250 251 256 265 269 269 270 270 270 277 283 286 287 285 278 269 259 252 245 238 233 229 223 217 216 216 212 208 209 210 208 203 201 201 202 203 205 210 215 220 228 237 243 247 248 248 249 250 250 252 253 253 254 257 257 264 273 274 273 276 276 273 268 262 262 259 251 245 245 247 252 253 249 245 245 240 225 210
256 251 249 248 249 248 248 247 245 245 249 255 263 267 267 267 268 271 277 283 287 289 290 287 283 271 256 245 239 233 227 222 218 216 213 210 207 206 207 206 204 203 203 203 204 206 211 217 223 230 237 240 241 244 249 250 249 252 255 255 253 252 251 252 267 279 282 284 281 276 272 267 261 265 264 254 245 242 242 246 249 247 248 250 241 220 199
251 248 247 247 247 246 244 243 242 243 248 255 261 265 266 266 268 272 277 281 285 287 284 281 295 297 268 243 237 232 225 221 219 216 211 207 205 201 199 199 199 199 201 203 202 204 211 218 224 226 229 233 237 241 247 251 251 253 255 253 249 248 247 254 272 281 286 291 279 260 256 264 274 282 274 257 245 239 238 241 242 245 254 250 227 199 183
249 247 246 245 244 242 240 240 241 243 249 255 261 264 265 266 270 274 276 279 281 280 277 275 280 285 268 243 235 230 224 221 220 216 210 206 202 196 193 194 194 192 195 197 195 195 206 215 216 216 216 219 224 230 241 251 253 253 255 254 248 244 239 239 249 258 275 284 269 241 232 264 303 303 275 252 243 237 235 235 235 241 252 237 207 180 162
245 243 243 242 241 239 237 238 240 243 249 256 260 263 266 271 277 280 280 280 279 277 278 279 276 266 251 238 231 228 225 222 221 218 212 206 202 197 195 195 193 191 193 195 191 188 198 208 208 208 210 212 220 232 241 248 253 255 258 256 243 222 201 208 224 244 294 296 245 212 214 260 326 317 251 228 225 231 231 228 228 231 226 200 188 175 156
239 238 239 239 237 236 235 237 239 243 248 255 259 264 270 277 282 286 285 283 281 278 277 277 272 256 238 226 224 226 226 225 224 221 215 209 205 203 202 199 196 197 201 202 198 194 195 203 207 208 212 222 241 247 240 241 253 260 257 249 232 208 196 208 218 226 10 359 215 205 213 242 11 43 196 204 184 160 181 191 196 200 181 137 139 154 148
235 234 236 236 235 235 234 236 239 243 247 254 258 265 274 282 285 288 287 284 280 278 276 272 265 250 228 219 219 223 226 227 227 226 221 213 207 208 209 204 197 199 206 211 211 209 206 207 211 220 234 247 253 247 235 237 252 258 255 246 230 208 198 206 215 213 57 35 212 210 211 206 141 74 79 141 145 120 117 137 156 165 154 121 114 126 125
232 231 233 233 233 233 233 235 239 243 247 253 260 267 278 286 287 286 285 280 275 273 271 265 257 242 223 216 216 218 222 226 227 227 225 218 210 209 212 211 205 202 204 211 218 222 224 224 226 234 245 248 243 238 237 243 249 253 253 244 230 211 199 203 211 211 161 91 95 196 190 174 165 125 87 94 100 91 87 95 108 118 119 111 109 116 116
229 228 230 231 231 231 232 235 239 244 248 253 262 273 283 287 286 283 280 277 273 268 262 255 246 230 215 212 213 216 219 224 225 224 223 221 216 211 212 216 217 214 213 214 217 221 230 235 238 242 240 231 225 234 245 246 246 249 249 237 224 211 201 202 206 196 166 141 131 179 177 158 158 160 140 113 98 89 91 98 96 97 108 111 108 107 111
226 226 228 229 229 230 231 234 238 244 249 255 266 279 284 282 281 281 278 275 273 263 252 247 238 222 213 210 210 213 214 216 221 222 219 219 218 214 213 216 221 222 223 222 221 226 236 239 239 238 230 220 217 228 240 241 243 247 242 229 219 209 200 201 202 192 180 174 170 180 181 174 170 165 151 135 125 116 113 115 114 116 126 134 132 124 122
224 225 226 228 229 229 230 234 238 243 250 259 269 277 278 275 278 279 275 272 272 265 252 243 228 211 205 201 201 208 211 211 214 218 216 213 215 216 216 219 223 227 228 227 228 234 240 237 234 232 227 221 217 217 220 230 244 245 238 228 220 211 204 204 202 193 186 187 186 183 185 186 186 176 149 130 128 127 124 122 120 121 129 139 145 146 147
221 222 224 225 227 227 229 233 238 242 251 261 267 271 272 272 273 272 266 260 261 260 253 241 223 205 196 194 195 202 208 208 208 213 213 211 211 212 215 219 223 226 229 231 233 236 236 234 233 234 230 225 221 214 208 222 249 248 237 230 225 216 209 209 208 202 197 195 191 190 192 189 188 184 166 139 125 120 120 121 121 123 129 136 142 148 151
218 219 221 222 223 225 227 230 234 239 247 255 259 264 266 265 265 267 261 252 249 250 249 242 228 209 198 195 194 197 203 205 205 207 209 211 213 213 214 217 221 224 226 229 230 232 234 234 235 235 234 232 230 225 220 224 243 244 234 228 228 220 209 207 208 206 204 202 198 195 195 195 194 190 176 152 132 127 133 137 136 135 136 140 145 148 146
214 215 217 217 218 219 221 225 229 233 239 244 250 257 262 261 263 266 262 252 246 245 245 243 229 210 203 200 195 196 204 204 201 203 205 207 211 212 211 214 219 223 226 227 227 228 230 233 235 237 238 237 237 235 227 219 225 234 231 225 222 216 208 204 204 204 207 211 210 202 198 201 201 194 184 174 166 164 162 162 161 158 154 151 153 152 145
210 210 210 210 212 214 216 219 223 226 232 239 244 248 253 257 260 263 263 259 251 244 243 239 218 204 205 200 193 197 205 198 196 204 208 208 210 211 207 210 217 221 222 224 226 226 228 232 237 238 238 240 242 238 228 215 214 222 225 219 212 208 206 204 202 204 211 220 211 187 183 187 188 188 188 188 184 179 176 174 171 170 168 163 160 157 151
205 204 202 203 208 211 211 211 215 218 223 230 234 235 241 249 255 259 264 266 260 251 245 231 206 200 204 199 192 198 204 197 195 203 211 214 217 219 216 216 220 221 220 221 224 227 230 234 237 239 244 250 247 234 221 215 213 211 210 210 207 202 201 201 198 197 198 196 185 177 179 178 175 172 178 186 187 181 179 181 180 176 172 169 168 167 165
199 198 197 200 204 203 198 199 207 211 212 218 227 233 239 246 253 257 260 263 261 253 240 215 199 199 203 200 197 200 204 201 198 202 209 214 217 221 224 225 225 226 228 229 230 232 235 238 241 245 250 252 234 214 209 212 212 207 203 205 204 199 198 199 198 195 192 191 190 191 189 187 184 177 170 173 181 185 184 183 181 177 176 178 179 179 177
191 192 194 197 198 195 193 197 203 206 209 217 228 237 241 245 250 254 254 249 244 238 221 201 197 200 202 202 201 202 203 203 200 202 210 216 213 213 220 225 224 225 230 233 232 231 233 237 244 250 251 242 222 216 214 211 208 205 204 206 206 202 200 203 205 203 200 200 201 199 194 192 192 188 180 178 183 188 189 186 181 180 182 183 185 188 191
186 188 190 189 189 191 196 201 205 210 216 222 227 234 242 246 245 243 241 236 226 217 203 194 197 202 205 206 205 203 204 204 201 201 209 217 216 213 217 221 221 222 227 230 230 231 235 240 248 253 253 242 230 224 216 209 205 204 204 206 206 203 201 204 207 207 205 207 208 203 197 195 194 192 190 189 191 192 191 188 185 185 186 188 191 196 200
185 186 187 185 186 191 197 203 210 216 222 226 229 235 247 253 244 233 231 229 215 203 197 193 194 199 205 207 206 206 205 205 205 206 209 212 215 217 220 223 225 228 231 234 236 238 243 248 253 255 250 237 224 213 208 207 205 201 201 205 204 200 199 203 206 206 208 211 209 201 197 197 198 196 195 195 196 195 192 190 190 190 191 194 199 202 203
190 190 188 188 191 195 198 204 213 219 224 231 239 245 252 254 236 217 214 214 203 196 195 196 195 198 201 202 202 203 205 205 209 213 216 215 218 223 226 228 232 236 238 240 243 247 251 257 260 256 244 230 216 204 201 202 202 199 200 203 202 200 201 205 207 207 207 207 202 198 197 199 199 199 197 196 195 193 191 191 193 195 197 201 205 206 205
196 196 195 196 200 202 203 208 218 223 226 233 239 234 224 215 204 197 199 201 198 198 201 199 197 200 201 198 198 202 204 205 209 215 219 222 228 232 234 236 238 241 243 245 248 253 259 262 256 239 222 211 202 197 196 197 198 197 196 200 203 204 204 206 206 205 202 197 192 192 195 198 198 198 197 194 193 196 196 196 198 200 203 207 208 209 212
198 199 199 201 208 213 214 216 222 226 226 228 228 221 213 205 197 197 200 199 197 203 208 206 204 209 209 200 198 202 203 204 207 209 211 220 235 245 243 239 236 236 242 249 255 261 266 261 220 205 196 191 190 191 192 194 194 191 190 196 202 204 202 201 201 199 197 194 189 187 190 193 194 194 194 194 197 201 204 204 205 206 209 211 214 217 223
200 201 201 204 212 221 222 219 219 223 227 227 225 221 217 210 201 201 207 206 203 208 213 209 208 215 216 206 201 202 202 205 211 214 215 221 239 254 251 237 231 234 241 253 270 287 287 245 221 209 196 190 190 191 189 189 191 190 189 193 198 199 198 198 199 197 197 196 194 191 192 193 193 194 196 199 202 205 207 208 209 211 213 216 219 225 233
205 207 209 212 218 224 221 215 216 221 225 227 225 221 217 213 208 209 214 215 211 211 215 216 211 207 206 202 199 199 199 203 211 220 223 228 242 261 260 237 230 237 247 283 21 9 274 227 214 205 197 193 194 193 191 190 191 193 194 194 196 197 199 201 201 200 200 200 198 198 197 195 194 196 200 203 205 207 207 208 210 213 216 221 226 234 244
208 212 216 220 224 227 220 216 218 221 223 226 229 225 220 218 217 219 223 227 221 211 210 213 209 199 193 194 195 196 200 204 208 218 228 236 247 261 265 257 250 342 35 54 64 302 242 221 212 208 202 196 194 194 194 193 193 195 197 197 196 197 200 204 205 204 205 206 204 201 198 197 198 199 202 203 204 205 206 208 212 217 222 226 234 245 256
212 215 217 218 221 224 224 222 222 222 222 226 230 229 225 227 229 228 231 237 237 225 206 200 194 188 188 191 192 195 202 208 213 222 233 241 246 253 265 291 12 37 37 42 219 234 230 218 212 209 205 200 196 195 195 195 195 195 197 198 197 197 201 206 207 205 206 209 207 199 195 196 199 201 201 203 204 206 209 214 219 223 228 236 247 257 264
216 218 218 217 219 224 227 225 223 221 219 222 227 229 229 232 235 234 233 235 239 237 226 210 199 194 194 194 193 196 202 209 219 230 238 242 247 258 286 348 11 4 333 239 230 228 224 215 209 207 206 203 199 195 194 195 196 196 197 199 199 200 202 206 207 206 207 210 208 201 197 197 199 202 204 206 208 211 216 220 223 229 238 249 259 264 267
Height
3145 3144 3143 3141 3140 3139 3138 3137 3136 3135 3135 3135 3136 3136 3136 3137 3137 3137 3138 3138 3139 3140 3140 3141 3142 3143 3144 3145 3145 3146 3147 3148 3149 3150 3150 3151 3151 3152 3152 3153 3153 3154 3154 3154 3154 3154 3155 3155 3155 3155 3155 3155 3155 3155 3156 3156 3156 3155 3155 3155 3154 3154 3154 3153 3153 3153 3153 3153 3154 3154 3155 3155 3156 3156 3156 3156 3156 3156 3156 3157 3158 3156 3154 3154 3154 3151 3148
3144 3142 3141 3140 3139 3137 3136 3135 3134 3133 3133 3133 3134 3134 3134 3135 3135 3136 3136 3137 3137 3138 3139 3139 3140 3141 3142 3143 3144 3145 3146 3146 3147 3148 3149 3149 3150 3150 3151 3152 3152 3153 3153 3153 3153 3154 3154 3154 3154 3154 3154 3155 3155 3155 3155 3155 3155 3155 3155 3154 3154 3154 3154 3153 3153 3152 3152 3153 3153 3154 3155 3155 3155 3155 3155 3155 3155 3155 3154 3155 3156 3155 3153 3152 3152 3150 3148
3142 3141 3139 3138 3137 3136 3135 3133 3132 3132 3131 3131 3132 3132 3133 3133 3133 3134 3134 3135 3136 3136 3137 3138 3139 3140 3140 3141 3142 3143 3144 3145 3146 3146 3147 3148 3148 3149 3150 3150 3151 3152 3152 3152 3152 3152 3153 3153 3153 3154 3154 3154 3154 3154 3154 3155 3155 3155 3154 3154 3154 3153 3154 3154 3153 3151 3151 3151 3151 3151 3153 3154 3154 3154 3154 3154 3154 3154 3153 3153 3153 3153 3151 3150 3150 3149 3148
3140 3139 3138 3137 3136 3134 3133 3132 3131 3130 3130 3130 3130 3130 3131 3131 3131 3132 3133 3133 3134 3134 3135 3136 3137 3138 3139 3140 3141 3141 3142 3143 3144 3145 3146 3146 3147 3147 3148 3149 3150 3150 3151 3151 3151 3151 3152 3152 3152 3153 3153 3153 3153 3153 3153 3154 3154 3154 3153 3153 3153 3153 3153 3153 3153 3151 3150 3149 3149 3149 3150 3152 3152 3153 3153 3153 3153 3153 3152 3152 3152 3151 3149 3149 3148 3148 3147
3139 3137 3136 3135 3134 3133 3132 3131 3130 3129 3128 3128 3128 3129 3129 3129 3130 3130 3131 3132 3132 3132 3133 3134 3135 3136 3137 3138 3139 3140 3141 3142 3143 3143 3144 3144 3145 3146 3146 3147 3148 3149 3149 3150 3150 3150 3151 3151 3151 3152 3152 3152 3152 3152 3152 3152 3152 3152 3152 3152 3152 3152 3152 3152 3152 3151 3150 3149 3148 3148 3149 3150 3151 3151 3152 3152 3152 3152 3152 3151 3150 3149 3148 3147 3147 3147 3147
3137 3136 3135 3133 3132 3131 3130 3129 3129 3128 3127 3126 3126 3127 3127 3128 3128 3128 3129 3129 3129 3130 3130 3131 3132 3134 3135 3136 3137 3138 3139 3140 3141 3142 3142 3143 3143 3144 3144 3145 3146 3147 3148 3148 3149 3149 3150 3150 3150 3151 3151 3151 3151 3151 3151 3151 3151 3151 3151 3151 3151 3151 3151 3151 3151 3151 3150 3149 3148 3148 3148 3148 3149 3150 3150 3151 3151 3151 3151 3150 3149 3149 3147 3146 3146 3146 3146
3135 3134 3133 3131 3130 3129 3128 3128 3127 3126 3126 3125 3125 3125 3125 3125 3126 3126 3127 3127 3127 3128 3128 3129 3130 3131 3132 3133 3134 3136 3137 3138 3139 3140 3141 3141 3142 3142 3142 3143 3145 3146 3146 3147 3147 3148 3148 3148 3149 3149 3149 3150 3150 3150 3150 3150 3150 3150 3150 3150 3150 3150 3150 3150 3150 3150 3150 3149 3149 3148 3148 3148 3148 3148 3149 3150 3150 3150 3150 3150 3149 3148 3146 3145 3145 3145 3146
3132 3131 3131 3130 3129 3128 3126 3126 3125 3125 3124 3124 3123 3123 3123 3123 3124 3124 3125 3125 3126 3126 3127 3127 3128 3129 3130 3131 3132 3133 3135 3135 3136 3137 3139 3139 3140 3140 3141 3142 3143 3144 3145 3145 3145 3146 3147 3147 3148 3148 3148 3148 3148 3148 3148 3148 3148 3148 3148 3148 3148 3149 3149 3149 3149 3149 3149 3148 3148 3148 3148 3148 3148 3147 3147 3148 3149 3149 3149 3149 3148 3147 3146 3145 3145 3145 3145
3129 3129 3128 3127 3127 3126 3125 3124 3123 3123 3122 3122 3122 3121 3121 3121 3121 3122 3122 3123 3123 3124 3125 3125 3126 3127 3128 3129 3130 3131 3132 3133 3134 3135 3136 3137 3138 3138 3139 3140 3141 3142 3143 3143 3143 3144 3145 3146 3146 3147 3147 3146 3146 3147 3147 3147 3147 3147 3147 3147 3147 3147 3148 3148 3148 3148 3147 3147 3148 3147 3147 3147 3147 3146 3146 3146 3147 3148 3148 3148 3148 3147 3146 3145 3144 3144 3145
3126 3125 3125 3125 3124 3124 3123 3122 3121 3121 3120 3120 3120 3120 3119 3120 3120 3120 3120 3120 3121 3122 3122 3123 3124 3125 3125 3126 3127 3129 3130 3131 3132 3133 3134 3135 3136 3136 3137 3137 3138 3139 3140 3141 3142 3143 3144 3145 3145 3145 3145 3145 3145 3145 3146 3146 3146 3146 3146 3146 3146 3147 3147 3147 3147 3147 3146 3146 3147 3146 3147 3146 3145 3145 3145 3145 3145 3146 3146 3146 3147 3146 3145 3144 3144 3144 3144
3123 3122 3122 3122 3121 3121 3121 3120 3119 3118 3118 3118 3118 3117 3117 3117 3118 3118 3118 3118 3119 3119 3120 3120 3121 3122 3123 3124 3125 3126 3128 3128 3129 3130 3131 3133 3134 3134 3135 3136 3136 3137 3138 3140 3141 3142 3142 3143 3144 3144 3144 3144 3144 3144 3145 3145 3145 3145 3145 3146 3146 3146 3146 3146 3146 3146 3146 3145 3146 3146 3146 3145 3144 3143 3143 3143 3143 3144 3144 3144 3145 3145 3145 3144 3143 3143 3143
3120 3119 3118 3118 3118 3119 3118 3118 3117 3116 3116 3115 3115 3115 3115 3115 3116 3116 3116 3116 3116 3117 3117 3118 3118 3119 3120 3121 3122 3123 3125 3126 3127 3127 3129 3130 3132 3132 3133 3134 3134 3135 3137 3138 3139 3140 3141 3142 3142 3143 3143 3143 3143 3143 3143 3144 3144 3144 3145 3145 3145 3145 3146 3146 3146 3146 3145 3145 3145 3145 3144 3143 3143 3143 3143 3143 3143 3143 3142 3142 3143 3143 3144 3143 3142 3142 3143
3116 3116 3115 3115 3115 3115 3116 3115 3115 3114 3113 3113 3113 3113 3113 3113 3113 3113 3114 3114 3114 3115 3115 3115 3116 3117 3117 3118 3119 3120 3122 3123 3124 3125 3126 3128 3129 3131 3131 3132 3133 3134 3135 3136 3137 3138 3139 3140 3141 3141 3141 3141 3141 3142 3142 3142 3143 3143 3143 3144 3144 3144 3145 3145 3145 3145 3145 3144 3145 3144 3142 3141 3142 3142 3142 3142 3142 3141 3141 3141 3141 3142 3142 3142 3142 3142 3142
3113 3113 3112 3112 3112 3112 3112 3112 3112 3111 3111 3111 3111 3111 3111 3111 3111 3111 3111 3112 3112 3112 3113 3113 3114 3114 3115 3115 3116 3117 3118 3120 3121 3122 3124 3125 3127 3128 3129 3130 3130 3132 3133 3134 3136 3137 3138 3138 3139 3140 3140 3140 3140 3140 3140 3140 3141 3141 3142 3142 3143 3143 3143 3144 3144 3144 3144 3143 3143 3142 3141 3141 3141 3141 3141 3141 3140 3140 3140 3140 3139 3140 3141 3141 3141 3141 3142
3110 3109 3109 3108 3109 3109 3109 3109 3109 3109 3108 3108 3108 3108 3109 3109 3109 3109 3109 3110 3110 3110 3111 3111 3111 3112 3112 3112 3113 3114 3115 3116 3117 3119 3120 3122 3124 3125 3126 3127 3128 3129 3131 3132 3134 3135 3136 3137 3137 3138 3138 3138 3138 3138 3138 3138 3138 3139 3140 3140 3141 3142 3142 3142 3143 3142 3142 3143 3142 3141 3141 3140 3140 3140 3140 3139 3139 3139 3139 3139 3138 3138 3139 3140 3140 3140 3141
3106 3106 3106 3105 3105 3106 3106 3106 3106 3106 3106 3106 3106 3106 3106 3106 3107 3107 3107 3108 3108 3109 3109 3109 3109 3109 3110 3110 3110 3111 3112 3113 3114 3115 3117 3119 3120 3122 3123 3124 3125 3127 3128 3130 3132 3133 3134 3134 3135 3136 3136 3136 3136 3136 3136 3136 3137 3137 3138 3139 3140 3140 3140 3141 3141 3141 3141 3141 3141 3140 3140 3139 3138 3138 3138 3138 3138 3138 3138 3138 3137 3137 3138 3138 3138 3139 3140
3103 3103 3102 3102 3103 3103 3103 3104 3103 3103 3103 3103 3103 3103 3104 3104 3104 3105 3105 3105 3106 3107 3107 3107 3107 3107 3108 3108 3108 3108 3109 3110 3111 3112 3114 3115 3117 3119 3120 3122 3123 3125 3126 3128 3129 3130 3131 3132 3133 3134 3134 3135 3135 3135 3135 3135 3135 3136 3136 3137 3138 3138 3139 3139 3139 3139 3139 3140 3139 3139 3138 3138 3137 3137 3137 3137 3137 3137 3137 3137 3136 3136 3137 3137 3137 3138 3138
3099 3099 3099 3099 3100 3100 3100 3101 3101 3101 3101 3100 3101 3101 3102 3102 3102 3102 3103 3103 3104 3104 3105 3104 3104 3105 3105 3106 3106 3106 3107 3107 3108 3109 3111 3112 3113 3115 3117 3119 3121 3122 3124 3126 3127 3128 3129 3130 3131 3132 3133 3133 3133 3133 3133 3134 3134 3134 3135 3136 3136 3136 3137 3137 3137 3137 3138 3138 3138 3137 3136 3136 3136 3136 3136 3136 3136 3136 3137 3136 3135 3135 3135 3136 3136 3136 3137
3096 3096 3096 3096 3097 3097 3098 3098 3098 3098 3098 3098 3098 3099 3099 3100 3100 3100 3100 3101 3101 3102 3102 3102 3102 3102 3103 3103 3104 3104 3104 3105 3106 3107 3108 3110 3111 3112 3115 3116 3118 3119 3121 3123 3125 3126 3127 3128 3129 3131 3131 3131 3132 3132 3132 3132 3132 3133 3133 3134 3134 3135 3135 3135 3135 3136 3136 3136 3136 3136 3135 3134 3135 3135 3135 3135 3135 3135 3135 3135 3134 3134 3134 3134 3134 3135 3135
3092 3092 3093 3093 3094 3094 3095 3095 3095 3095 3096 3096 3096 3096 3097 3097 3098 3098 3098 3098 3098 3099 3100 3099 3099 3100 3100 3101 3101 3101 3102 3103 3104 3105 3106 3107 3108 3110 3112 3113 3115 3117 3119 3121 3123 3124 3125 3126 3127 3129 3129 3129 3130 3130 3130 3130 3131 3131 3132 3132 3132 3133 3133 3133 3133 3134 3134 3134 3135 3134 3133 3133 3133 3133 3133 3133 3133 3133 3133 3133 3133 3133 3133 3133 3133 3134 3134
3089 3089 3090 3090 3091 3091 3092 3092 3093 3093 3093 3093 3093 3094 3095 3095 3096 3096 3096 3095 3096 3097 3097 3097 3097 3097 3098 3098 3098 3098 3099 3100 3102 3102 3104 3105 3107 3108 3109 3110 3112 3114 3116 3118 3120 3121 3123 3124 3126 3127 3127 3127 3128 3128 3128 3128 3129 3129 3130 3130 3131 3131 3131 3131 3131 3132 3132 3132 3132 3132 3131 3131 3132 3132 3131 3131 3131 3131 3132 3132 3132 3132 3132 3132 3132 3133 3133
3086 3086 3087 3087 3088 3088 3089 3089 3090 3090 3091 3091 3091 3092 3093 3093 3093 3093 3093 3093 3093 3094 3094 3094 3094 3095 3095 3095 3095 3095 3096 3098 3099 3100 3102 3103 3105 3106 3107 3108 3110 3112 3114 3116 3117 3119 3121 3122 3124 3124 3125 3125 3126 3126 3127 3127 3127 3127 3128 3129 3129 3129 3129 3130 3130 3130 3130 3130 3130 3130 3130 3130 3130 3130 3129 3129 3129 3130 3130 3131 3131 3131 3131 3131 3131 3132 3132
3083 3083 3084 3084 3085 3086 3086 3087 3088 3088 3088 3089 3089 3090 3091 3091 3091 3091 3091 3091 3091 3091 3092 3092 3091 3092 3092 3092 3092 3093 3094 3095 3097 3098 3100 3101 3103 3104 3106 3107 3108 3109 3111 3112 3115 3117 3119 3121 3122 3123 3123 3124 3125 3125 3125 3126 3126 3126 3127 3127 3127 3128 3128 3128 3128 3128 3128 3128 3128 3128 3128 3128 3128 3128 3127 3127 3127 3128 3128 3129 3129 3130 3130 3130 3130 3131 3132
3080 3081 3081 3082 3083 3083 3084 3085 3085 3086 3086 3087 3087 3088 3089 3089 3089 3089 3089 3089 3089 3089 3089 3089 3089 3088 3088 3089 3089 3090 3091 3093 3094 3096 3097 3099 3101 3103 3104 3105 3106 3107 3108 3110 3113 3115 3117 3118 3120 3121 3122 3122 3123 3124 3124 3124 3124 3125 3125 3126 3126 3126 3127 3127 3127 3127 3127 3126 3126 3126 3126 3126 3126 3126 3125 3125 3125 3126 3126 3127 3128 3128 3128 3128 3128 3129 3130
3078 3078 3079 3079 3080 3081 3082 3082 3083 3084 3084 3085 3086 3086 3087 3087 3087 3087 3087 3087 3087 3086 3086 3087 3086 3086 3086 3087 3087 3087 3088 3090 3091 3093 3095 3097 3100 3101 3102 3103 3104 3106 3107 3109 3111 3113 3114 3116 3117 3118 3120 3121 3122 3122 3122 3123 3123 3123 3124 3124 3125 3125 3125 3125 3125 3126 3125 3125 3125 3125 3125 3124 3124 3124 3124 3123 3124 3124 3124 3125 3126 3126 3127 3127 3128 3128 3130
3075 3076 3076 3077 3078 3078 3079 3080 3081 3082 3083 3083 3084 3084 3085 3085 3085 3085 3085 3085 3085 3084 3084 3084 3084 3084 3084 3085 3085 3085 3086 3087 3089 3091 3093 3096 3098 3099 3100 3101 3103 3104 3106 3108 3109 3110 3112 3114 3115 3116 3118 3119 3120 3120 3121 3121 3122 3122 3123 3123 3124 3124 3124 3124 3124 3124 3124 3124 3123 3123 3123 3123 3123 3123 3122 3122 3122 3122 3123 3123 3124 3125 3126 3126 3127 3128 3129
3073 3073 3074 3075 3075 3076 3077 3078 3079 3080 3081 3081 3082 3082 3083 3083 3083 3084 3083 3083 3083 3082 3082 3082 3082 3082 3082 3082 3082 3083 3084 3085 3087 3089 3092 3094 3096 3097 3099 3100 3101 3103 3104 3106 3107 3108 3110 3112 3113 3114 3116 3117 3118 3119 3119 3120 3120 3121 3121 3122 3122 3123 3123 3123 3123 3123 3123 3123 3122 3122 3122 3122 3122 3122 3121 3120 3120 3120 3121 3122 3123 3124 3125 3125 3126 3127 3127
3070 3071 3072 3072 3073 3074 3075 3076 3077 3078 3079 3079 3080 3080 3081 3081 3081 3081 3081 3081 3081 3081 3080 3080 3081 3081 3081 3081 3081 3081 3082 3083 3085 3087 3090 3092 3094 3096 3097 3098 3099 3101 3102 3104 3105 3106 3108 3110 3111 3113 3114 3115 3116 3117 3118 3118 3119 3119 3120 3121 3121 3122 3122 3122 3122 3122 3122 3121 3121 3121 3121 3121 3121 3120 3119 3118 3118 3118 3120 3121 3123 3124 3124 3124 3125 3126 3125
3068 3069 3069 3070 3071 3072 3073 3074 3075 3076 3077 3078 3078 3078 3079 3079 3079 3079 3079 3079 3079 3078 3078 3078 3079 3079 3079 3079 3080 3080 3080 3081 3083 3085 3088 3090 3092 3094 3095 3096 3098 3099 3101 3102 3103 3104 3106 3108 3110 3111 3112 3113 3114 3115 3116 3117 3117 3118 3119 3120 3120 3121 3121 3121 3121 3121 3121 3120 3120 3120 3120 3120 3120 3119 3118 3118 3118 3118 3119 3120 3122 3123 3123 3123 3124 3126 3126
3065 3066 3067 3068 3069 3071 3071 3072 3073 3074 3075 3076 3076 3077 3077 3077 3077 3077 3077 3077 3077 3076 3076 3076 3077 3077 3077 3078 3078 3078 3079 3080 3082 3084 3086 3088 3091 3092 3093 3094 3095 3097 3099 3100 3101 3102 3104 3106 3108 3109 3111 3112 3113 3113 3114 3115 3116 3117 3118 3119 3119 3120 3120 3120 3121 3121 3120 3120 3120 3120 3120 3120 3120 3120 3119 3119 3119 3119 3119 3119 3121 3122 3122 3122 3124 3127 3128
3063 3064 3065 3066 3067 3068 3069 3071 3071 3072 3073 3074 3074 3075 3075 3075 3075 3075 3075 3074 3074 3074 3074 3074 3075 3075 3076 3076 3077 3077 3078 3079 3080 3082 3084 3086 3089 3090 3091 3092 3093 3095 3097 3098 3100 3101 3103 3104 3106 3108 3110 3111 3111 3111 3112 3113 3114 3115 3117 3118 3118 3119 3119 3120 3120 3120 3120 3120 3120 3120 3120 3120 3121 3121 3120 3119 3120 3120 3120 3119 3120 3120 3121 3122 3125 3127 3129
3061 3062 3063 3064 3065 3066 3068 3069 3070 3071 3071 3072 3072 3073 3073 3073 3073 3073 3072 3072 3072 3072 3072 3072 3073 3073 3074 3075 3075 3076 3077 3078 3079 3081 3083 3085 3087 3088 3089 3090 3092 3093 3095 3097 3098 3100 3102 3103 3105 3107 3108 3108 3109 3109 3110 3111 3112 3114 3116 3117 3117 3118 3119 3119 3119 3120 3120 3120 3120 3120 3120 3120 3121 3122 3121 3121 3121 3121 3121 3121 3121 3121 3121 3123 3126 3128 3129
3059 3060 3061 3062 3063 3065 3066 3067 3068 3069 3069 3070 3070 3071 3071 3071 3071 3070 3070 3070 3070 3070 3071 3071 3071 3072 3072 3073 3074 3075 3076 3077 3078 3080 3081 3083 3085 3087 3088 3089 3090 3092 3094 3095 3096 3097 3099 3101 3103 3104 3105 3106 3106 3107 3108 3109 3111 3112 3114 3115 3116 3117 3117 3118 3119 3119 3120 3120 3120 3120 3120 3121 3121 3122 3122 3122 3122 3122 3123 3123 3123 3123 3123 3125 3127 3129 3131
3057 3058 3059 3060 3061 3063 3064 3065 3066 3067 3068 3068 3069 3069 3069 3069 3068 3068 3068 3068 3068 3068 3069 3069 3070 3070 3071 3072 3073 3074 3075 3076 3077 3078 3080 3082 3083 3085 3086 3088 3089 3091 3092 3093 3094 3096 3097 3099 3100 3102 3103 3103 3104 3105 3106 3107 3109 3111 3112 3113 3114 3115 3116 3117 3118 3119 3119 3119 3120 3120 3120 3121 3122 3122 3122 3122 3123 3123 3124 3124 3125 3125 3125 3127 3129 3130 3131
3054 3056 3057 3059 3060 3061 3062 3063 3064 3065 3066 3066 3067 3067 3067 3067 3067 3067 3067 3066 3067 3067 3067 3068 3068 3069 3070 3071 3072 3072 3074 3075 3076 3077 3079 3080 3082 3083 3085 3086 3087 3089 3090 3092 3093 3094 3096 3097 3098 3099 3100 3101 3101 3102 3104 3106 3108 3109 3111 3112 3113 3114 3114 3115 3116 3117 3118 3119 3120 3120 3120 3121 3121 3122 3122 3122 3123 3123 3124 3125 3125 3126 3127 3128 3130 3131 3132
3053 3054 3056 3057 3058 3059 3061 3062 3063 3063 3064 3064 3065 3065 3065 3065 3065 3065 3065 3065 3065 3066 3066 3066 3067 3068 3069 3070 3071 3072 3073 3074 3075 3076 3077 3079 3080 3081 3083 3085 3086 3087 3088 3090 3091 3093 3094 3095 3096 3097 3097 3097 3098 3100 3102 3104 3106 3108 3109 3110 3111 3112 3113 3114 3115 3116 3117 3118 3119 3119 3120 3120 3121 3121 3122 3122 3122 3123 3124 3125 3125 3126 3128 3129 3130 3131 3132
3051 3052 3054 3055 3057 3058 3059 3060 3061 3062 3062 3063 3063 3063 3063 3064 3064 3064 3064 3064 3064 3065 3065 3065 3066 3066 3067 3069 3070 3071 3071 3072 3074 3075 3076 3078 3079 3080 3081 3083 3084 3085 3086 3087 3089 3090 3091 3092 3093 3094 3094 3094 3096 3099 3101 3102 3104 3106 3108 3109 3110 3111 3112 3113 3114 3115 3116 3117 3118 3118 3119 3119 3120 3120 3121 3122 3122 3123 3124 3124 3126 3127 3128 3129 3130 3131 3132
3049 3051 3052 3054 3055 3056 3057 3058 3059 3060 3061 3061 3061 3062 3062 3062 3062 3062 3062 3063 3063 3063 3063 3064 3065 3065 3066 3067 3069 3070 3070 3071 3072 3073 3075 3076 3077 3078 3079 3081 3081 3082 3084 3085 3087 3088 3089 3090 3091 3091 3091 3093 3095 3097 3099 3100 3102 3104 3105 3107 3108 3109 3110 3111 3113 3114 3115 3116 3117 3117 3118 3118 3119 3120 3121 3122 3123 3123 3124 3125 3126 3127 3128 3129 3130 3130 3132
3047 3049 3051 3052 3054 3055 3056 3057 3058 3059 3059 3060 3060 3060 3061 3061 3061 3061 3061 3061 3061 3062 3062 3062 3063 3064 3065 3066 3068 3069 3069 3070 3071 3072 3073 3074 3075 3076 3077 3078 3079 3081 3082 3083 3085 3086 3087 3088 3088 3088 3089 3090 3092 3095 3097 3098 3100 3101 3103 3105 3106 3107 3108 3110 3111 3113 3114 3115 3116 3117 3118 3118 3119 3119 3120 3121 3122 3123 3124 3125 3126 3127 3127 3128 3129 3130 3131
3046 3048 3049 3051 3052 3053 3055 3056 3057 3057 3058 3059 3059 3059 3059 3060 3060 3060 3059 3059 3060 3060 3060 3061 3062 3063 3064 3065 3067 3067 3068 3069 3070 3071 3072 3073 3074 3075 3076 3077 3079 3080 3081 3082 3083 3084 3085 3085 3086 3085 3085 3087 3089 3092 3094 3096 3097 3099 3101 3103 3104 3105 3107 3108 3110 3112 3113 3114 3115 3116 3117 3118 3118 3119 3120 3121 3122 3123 3124 3124 3125 3126 3127 3128 3129 3130 3131
3045 3046 3048 3049 3050 3052 3054 3055 3056 3056 3057 3057 3058 3058 3058 3058 3058 3058 3058 3058 3059 3059 3059 3060 3061 3062 3063 3064 3065 3066 3067 3068 3069 3070 3071 3072 3073 3074 3075 3076 3078 3079 3079 3080 3081 3082 3083 3083 3082 3081 3082 3084 3087 3089 3091 3093 3095 3097 3099 3101 3102 3104 3105 3106 3108 3110 3111 3113 3114 3115 3116 3117 3117 3118 3119 3120 3121 3122 3123 3124 3125 3126 3127 3128 3129 3130 3131
3044 3045 3047 3048 3050 3051 3053 3054 3055 3055 3056 3056 3056 3057 3057 3057 3057 3057 3057 3057 3058 3058 3058 3059 3060 3061 3062 3063 3064 3065 3066 3067 3068 3069 3070 3071 3072 3073 3074 3075 3076 3076 3077 3078 3079 3079 3079 3079 3078 3077 3080 3083 3085 3087 3089 3091 3093 3095 3097 3099 3101 3102 3103 3105 3107 3108 3110 3111 3112 3113 3115 3116 3116 3117 3118 3119 3120 3121 3122 3124 3125 3126 3126 3127 3128 3129 3130
3043 3044 3046 3048 3049 3050 3051 3053 3054 3054 3054 3054 3055 3055 3055 3055 3055 3056 3056 3056 3057 3057 3058 3058 3059 3060 3061 3062 3063 3064 3065 3066 3067 3069 3069 3070 3071 3072 3073 3073 3074 3074 3075 3075 3076 3075 3075 3075 3074 3075 3078 3081 3082 3084 3086 3088 3090 3092 3094 3096 3099 3100 3101 3103 3105 3106 3108 3109 3110 3112 3113 3114 3115 3116 3117 3118 3119 3121 3122 3123 3124 3125 3126 3127 3128 3129 3130
3042 3044 3045 3047 3048 3049 3050 3051 3052 3052 3052 3052 3053 3053 3053 3054 3054 3054 3055 3055 3056 3057 3057 3058 3059 3059 3060 3061 3062 3063 3064 3065 3066 3067 3068 3068 3069 3070 3071 3072 3072 3073 3073 3073 3073 3073 3072 3071 3071 3073 3076 3077 3078 3080 3083 3086 3088 3090 3092 3094 3096 3098 3099 3101 3103 3104 3106 3108 3109 3110 3111 3112 3114 3115 3116 3117 3119 3120 3121 3122 3123 3124 3125 3126 3127 3128 3129
3042 3043 3044 3045 3046 3047 3049 3049 3050 3050 3050 3051 3051 3052 3052 3052 3053 3053 3054 3054 3055 3056 3056 3057 3058 3058 3059 3060 3061 3062 3063 3064 3065 3065 3066 3067 3068 3069 3070 3070 3070 3071 3071 3071 3070 3069 3068 3068 3069 3071 3073 3074 3076 3078 3080 3083 3086 3088 3090 3092 3094 3095 3097 3099 3101 3103 3104 3106 3107 3109 3110 3111 3112 3114 3115 3116 3118 3119 3120 3121 3122 3123 3124 3125 3126 3127 3128
3041 3042 3043 3044 3045 3046 3047 3047 3048 3048 3049 3050 3050 3050 3051 3051 3051 3052 3053 3054 3054 3055 3056 3056 3057 3058 3058 3059 3060 3061 3062 3063 3064 3064 3065 3066 3067 3067 3068 3068 3069 3069 3069 3068 3067 3066 3066 3066 3067 3069 3070 3071 3073 3076 3078 3081 3083 3086 3088 3090 3092 3094 3096 3098 3100 3101 3103 3104 3106 3107 3109 3110 3111 3113 3114 3116 3117 3118 3119 3120 3121 3122 3123 3124 3125 3126 3127
3040 3041 3042 3043 3044 3044 3045 3046 3047 3047 3048 3048 3049 3049 3049 3050 3051 3051 3052 3053 3054 3054 3055 3056 3056 3056 3057 3058 3059 3060 3061 3062 3063 3063 3064 3065 3066 3066 3066 3066 3066 3067 3066 3065 3065 3065 3065 3066 3067 3067 3068 3070 3072 3074 3076 3079 3081 3084 3087 3089 3091 3093 3095 3096 3098 3099 3101 3103 3104 3106 3107 3109 3110 3112 3113 3114 3115 3117 3118 3119 3120 3121 3122 3123 3124 3125 3126
3039 3040 3041 3041 3042 3043 3044 3045 3046 3046 3046 3047 3047 3048 3048 3049 3050 3051 3051 3052 3053 3054 3054 3055 3055 3056 3056 3058 3058 3059 3060 3061 3062 3062 3063 3064 3064 3064 3064 3064 3064 3064 3064 3064 3064 3064 3065 3065 3065 3066 3067 3068 3070 3072 3075 3077 3080 3082 3085 3087 3090 3092 3093 3095 3096 3098 3100 3101 3103 3104 3106 3107 3109 3110 3111 3113 3114 3115 3116 3117 3118 3119 3120 3121 3122 3123 3124
3038 3039 3039 3040 3041 3042 3043 3044 3044 3045 3045 3046 3046 3047 3048 3049 3050 3050 3051 3051 3052 3053 3054 3054 3054 3055 3056 3057 3058 3059 3059 3060 3061 3062 3063 3063 3063 3064 3063 3063 3063 3063 3063 3064 3064 3064 3064 3064 3064 3065 3066 3068 3069 3071 3074 3076 3079 3081 3084 3086 3088 3090 3092 3094 3095 3097 3098 3100 3102 3103 3105 3106 3107 3109 3110 3111 3112 3114 3115 3116 3117 3118 3119 3120 3121 3122 3122
3036 3037 3038 3039 3040 3041 3042 3043 3043 3044 3044 3045 3045 3046 3047 3048 3048 3049 3049 3050 3051 3052 3053 3053 3054 3054 3055 3056 3057 3058 3059 3059 3060 3061 3062 3062 3063 3063 3062 3062 3062 3063 3063 3063 3064 3064 3063 3063 3064 3065 3066 3067 3069 3071 3073 3075 3077 3080 3082 3085 3087 3089 3091 3092 3094 3096 3097 3099 3100 3102 3103 3105 3106 3107 3108 3110 3111 3112 3113 3114 3115 3116 3117 3118 3119 3120 3120
3035 3036 3037 3038 3039 3040 3041 3041 3042 3043 3043 3043 3044 3045 3046 3047 3047 3047 3048 3049 3050 3051 3052 3053 3053 3053 3054 3055 3056 3057 3058 3058 3059 3060 3061 3061 3062 3062 3061 3062 3062 3063 3063 3063 3063 3063 3063 3063 3064 3064 3065 3067 3068 3070 3072 3074 3076 3078 3081 3083 3085 3087 3089 3091 3092 3094 3095 3097 3098 3100 3101 3102 3104 3105 3107 3108 3109 3110 3112 3113 3114 3114 3115 3116 3117 3117 3118
3034 3035 3036 3037 3038 3038 3039 3040 3041 3041 3042 3042 3043 3044 3045 3046 3046 3047 3047 3048 3048 3049 3050 3051 3052 3053 3053 3054 3055 3056 3057 3058 3058 3059 3060 3060 3060 3061 3061 3062 3062 3062 3062 3062 3062 3062 3062 3063 3063 3064 3065 3066 3068 3069 3071 3073 3075 3077 3079 3081 3083 3085 3087 3088 3090 3091 3093 3094 3096 3098 3099 3101 3102 3103 3105 3106 3108 3109 3110 3111 3112 3113 3113 3114 3114 3115 3115